TimeCST,TemperatureF,Dew PointF,Humidity,Sea Level PressureIn,VisibilityMPH,Wind Direction,Wind SpeedMPH,Gust SpeedMPH,PrecipitationIn,Events,Conditions,WindDirDegrees,DateUTC
12:06 AM,37.4,30.2,75,29.67,10.0,NW,23.0,34.5,N/A,,Overcast,320,2012-01-12 06:06:00
12:51 AM,35.1,28.0,76,29.69,10.0,NW,20.7,26.5,N/A,,Overcast,310,2012-01-12 06:51:00
1:29 AM,33.8,26.6,75,29.68,10.0,WNW,15.0,23.0,N/A,,Overcast,300,2012-01-12 07:29:00
1:51 AM,32.0,25.0,75,29.71,10.0,NW,17.3,25.3,N/A,,Overcast,310,2012-01-12 07:51:00
2:51 AM,30.0,23.0,75,29.71,9.0,WNW,19.6,26.5,0.00,Snow,Light Snow,290,2012-01-12 08:51:00
3:23 AM,28.4,21.2,74,29.70,2.0,WNW,23.0,29.9,0.01,Snow,Light Snow,290,2012-01-12 09:23:00
3:33 AM,26.6,21.2,80,29.70,1.5,WNW,17.3,28.8,0.01,Snow,Light Snow,290,2012-01-12 09:33:00
3:51 AM,27.0,21.9,81,29.72,1.5,NW,19.6,27.6,0.02,Snow,Light Snow,310,2012-01-12 09:51:00
4:46 AM,24.8,21.2,86,29.72,1.5,WNW,11.5,18.4,0.03,Snow,Light Snow,300,2012-01-12 10:46:00
4:51 AM,24.8,21.2,86,29.72,1.2,WNW,12.7,21.9,N/A,Snow,Light Snow,300,2012-01-12 10:51:00
5:18 AM,24.8,19.4,80,29.72,1.2,WNW,20.7,27.6,0.03,Snow,Light Snow,290,2012-01-12 11:18:00
5:25 AM,23.0,19.4,86,29.72,1.0,WNW,18.4,29.9,0.03,Snow,Light Snow,300,2012-01-12 11:25:00
5:51 AM,21.9,18.0,85,29.75,1.2,West,21.9,31.1,0.06,Snow,Light Snow,280,2012-01-12 11:51:00
6:34 AM,19.4,15.8,86,29.74,2.0,WNW,18.4,34.5,0.02,Snow,Light Snow,300,2012-01-12 12:34:00
6:51 AM,19.9,15.1,81,29.77,3.0,WNW,17.3,24.2,0.02,Snow,Light Snow,300,2012-01-12 12:51:00
6:55 AM,19.4,14.0,80,29.74,5.0,WNW,17.3,24.2,0.00,Snow,Light Snow,300,2012-01-12 12:55:00
7:51 AM,19.9,12.9,74,29.77,6.0,WNW,19.6,33.4,0.00,Snow,Light Snow,290,2012-01-12 13:51:00
8:44 AM,19.4,12.2,74,29.76,3.0,WNW,13.8,29.9,0.00,Snow,Light Snow,290,2012-01-12 14:44:00
8:51 AM,19.9,12.9,74,29.79,3.0,WNW,16.1,26.5,0.01,Snow,Light Snow,290,2012-01-12 14:51:00
8:58 AM,19.4,12.2,74,29.76,2.5,WNW,17.3,25.3,0.00,Snow,Light Snow,290,2012-01-12 14:58:00
9:10 AM,19.4,14.0,80,29.76,3.0,WNW,13.8,24.2,0.00,Snow,Light Snow,290,2012-01-12 15:10:00
9:17 AM,19.4,14.0,80,29.76,5.0,West,16.1,-,0.00,Snow,Light Snow,280,2012-01-12 15:17:00
9:51 AM,21.9,14.0,72,29.78,6.0,WNW,16.1,27.6,0.00,Snow,Light Snow,290,2012-01-12 15:51:00
9:59 AM,21.2,14.0,74,29.76,7.0,WNW,17.3,24.2,0.00,Snow,Light Snow,290,2012-01-12 15:59:00
10:40 AM,21.2,15.8,80,29.75,3.0,WNW,21.9,35.7,0.00,Snow,Light Snow,290,2012-01-12 16:40:00
10:47 AM,23.0,14.0,68,29.75,7.0,WNW,21.9,29.9,0.00,Snow,Light Snow,290,2012-01-12 16:47:00
10:51 AM,23.0,12.9,65,29.78,7.0,West,23.0,29.9,0.00,Snow,Light Snow,280,2012-01-12 16:51:00
11:51 AM,21.0,12.9,71,29.77,4.0,WNW,20.7,29.9,0.00,Snow,Light Snow,290,2012-01-12 17:51:00
11:58 AM,21.2,12.2,68,29.74,3.0,WNW,23.0,29.9,0.00,Snow,Light Snow,290,2012-01-12 17:58:00
12:05 PM,21.2,12.2,68,29.74,1.5,WNW,18.4,29.9,0.00,Snow,Light Snow,290,2012-01-12 18:05:00
12:11 PM,21.2,14.0,74,29.74,1.0,WNW,15.0,25.3,0.00,Snow,Light Snow,290,2012-01-12 18:11:00
12:39 PM,21.2,14.0,74,29.73,1.5,West,19.6,29.9,0.00,Snow,Light Snow,280,2012-01-12 18:39:00
12:51 PM,21.0,14.0,74,29.76,1.0,WNW,20.7,27.6,0.00,Snow,Light Snow,290,2012-01-12 18:51:00
1:21 PM,19.4,12.2,74,29.74,3.0,West,25.3,38.0,0.00,Snow,Light Snow,280,2012-01-12 19:21:00
1:41 PM,19.4,12.2,74,29.75,3.0,West,27.6,40.3,0.00,Snow,Light Snow,280,2012-01-12 19:41:00
1:46 PM,19.4,12.2,74,29.75,2.5,WNW,24.2,40.3,0.00,Snow,Light Snow,290,2012-01-12 19:46:00
1:47 PM,19.9,12.0,71,29.79,2.5,WNW,25.3,40.3,0.00,Snow,Light Snow,290,2012-01-12 19:47:00
1:51 PM,19.9,12.0,71,29.79,2.5,WNW,25.3,40.3,0.00,Snow,Light Snow,290,2012-01-12 19:51:00
2:21 PM,19.4,10.4,68,29.77,4.0,WNW,24.2,33.4,0.00,Snow,Light Snow,290,2012-01-12 20:21:00
2:51 PM,18.0,9.0,68,29.82,4.0,WNW,26.5,34.5,0.00,Snow,Light Snow,290,2012-01-12 20:51:00
3:19 PM,17.6,10.4,73,29.79,2.0,WNW,18.4,29.9,0.01,Snow,Light Snow,290,2012-01-12 21:19:00
3:40 PM,17.6,10.4,73,29.80,4.0,WNW,20.7,31.1,0.01,Snow,Light Snow,290,2012-01-12 21:40:00
3:51 PM,17.1,10.9,77,29.85,4.0,WNW,21.9,33.4,0.01,Snow,Light Snow,300,2012-01-12 21:51:00
4:51 PM,17.1,8.1,68,29.88,4.0,WNW,26.5,36.8,0.00,Snow,Light Snow,290,2012-01-12 22:51:00
5:02 PM,17.6,8.6,68,29.84,4.0,WNW,21.9,31.1,0.00,Snow,Light Snow,290,2012-01-12 23:02:00
5:51 PM,16.0,8.1,71,29.91,5.0,West,19.6,36.8,0.00,Snow,Light Snow,280,2012-01-12 23:51:00
6:51 PM,16.0,8.1,71,29.92,4.0,West,18.4,25.3,0.00,Snow,Light Snow,270,2012-01-13 00:51:00
7:07 PM,15.8,8.6,73,29.88,3.0,West,18.4,-,0.00,Snow,Light Snow,270,2012-01-13 01:07:00
7:51 PM,17.1,10.0,74,29.93,3.0,West,17.3,26.5,0.00,Snow,Light Snow,270,2012-01-13 01:51:00
8:32 PM,17.6,10.4,73,29.88,4.0,West,17.3,-,0.00,Snow,Light Snow,270,2012-01-13 02:32:00
8:51 PM,18.0,10.0,71,29.93,4.0,West,19.6,27.6,0.00,Snow,Light Snow,280,2012-01-13 02:51:00
9:41 PM,17.6,10.4,73,29.89,6.0,West,19.6,24.2,0.00,Snow,Light Snow,280,2012-01-13 03:41:00
9:51 PM,18.0,10.0,71,29.94,9.0,West,18.4,25.3,0.00,,Overcast,270,2012-01-13 03:51:00
10:51 PM,18.0,8.1,65,29.95,9.0,West,19.6,29.9,0.00,Snow,Light Snow,270,2012-01-13 04:51:00
11:51 PM,18.0,8.1,65,29.96,10.0,West,21.9,27.6,0.00,,Scattered Clouds,270,2012-01-13 05:51:00